Wind_Speed
35 37 38 39 40 41 43 44 45 46 47 47 48 48 49 50 50 51 51 50 50 49 48 48 48 48 48 49 50 51 51 52 52 53 54 54 54 55
36 37 38 39 40 42 43 44 45 46 47 47 48 49 49 50 49 49 48 47 46 45 45 45 45 46 47 48 49 49 50 51 51 51 51 52 52 52
37 38 39 40 41 43 43 44 45 46 47 47 48 48 48 47 46 45 44 43 43 42 42 42 43 44 45 46 46 47 47 47 47 47 48 48 48 48
37 38 39 41 42 43 43 44 44 45 45 45 44 44 43 42 40 40 39 39 39 39 39 40 41 41 41 42 42 43 43 43 43 44 44 44 44 45
37 38 39 40 41 41 41 41 41 41 41 40 39 38 37 36 36 36 36 36 36 37 37 37 37 37 37 37 37 37 37 38 39 40 40 40 41 41
37 37 38 38 38 38 38 38 37 37 37 36 35 34 34 33 33 33 33 33 34 34 34 35 34 34 33 33 33 34 34 35 35 36 36 37 37 38
35 35 35 35 35 35 35 34 34 34 33 33 32 32 31 31 31 31 31 31 31 31 32 32 32 31 31 30 31 31 32 32 32 32 32 33 33 34
32 33 33 33 33 33 33 32 32 31 30 30 29 29 29 29 29 29 29 29 29 29 29 29 29 28 28 29 29 29 30 29 29 30 30 31 31 31
30 30 30 30 30 31 30 30 29 28 27 27 27 27 27 27 27 27 27 27 27 26 26 26 25 26 26 26 27 28 28 28 28 28 28 28 28 29
28 28 27 28 28 28 27 26 26 25 24 24 24 24 24 25 25 25 24 24 23 23 23 23 24 24 24 25 26 26 26 26 26 26 26 27 27 27
25 25 25 25 25 24 24 23 22 22 22 22 22 22 23 23 22 22 21 21 21 21 21 21 21 22 22 23 24 24 24 25 25 25 25 25 25 25
24 24 23 23 22 22 21 20 20 20 20 20 20 20 20 21 20 20 19 19 19 19 18 18 19 20 20 21 22 23 22 23 23 24 24 24 23 23
20 20 20 20 19 19 19 18 18 19 19 19 19 19 19 18 18 17 16 16 16 16 16 16 17 18 19 19 20 21 21 21 22 23 22 22 22 21
17 17 17 17 17 17 16 16 17 17 17 18 18 17 17 17 15 15 14 14 14 14 14 15 16 16 17 18 19 19 20 20 21 22 22 22 22 21
15 15 15 15 15 15 15 15 15 16 16 16 16 15 15 14 14 13 12 11 12 12 12 12 13 15 16 17 17 18 19 20 20 20 21 21 22 22
13 13 13 13 13 13 14 14 14 14 15 14 14 13 13 12 12 11 10 10 10 10 10 11 11 13 14 15 16 17 18 19 19 20 20 21 21 22
10 10 11 11 12 12 13 13 13 13 13 12 11 11 11 10 9 9 8 8 8 8 9 9 10 11 12 13 15 16 17 18 19 20 20 21 21 22
8 9 10 10 11 11 11 11 11 11 11 10 9 9 9 8 8 7 7 7 7 7 7 8 9 10 12 13 15 16 17 18 19 20 21 21 22 22
8 8 9 9 10 10 10 10 10 9 9 8 8 7 7 6 6 6 6 5 5 5 6 7 8 10 12 13 15 16 17 18 19 20 20 21 21 22
7 8 8 9 9 9 9 9 8 8 7 6 6 6 6 5 5 5 5 4 4 5 6 7 8 10 11 13 14 16 17 18 19 20 21 21 22 22
7 7 8 8 8 8 8 7 7 6 6 5 5 4 4 4 5 4 4 5 5 6 6 7 9 10 12 13 14 16 17 18 20 20 21 22 22 22
7 7 8 8 8 8 7 7 6 5 5 4 4 4 4 4 5 5 6 6 7 7 8 8 10 11 12 13 15 16 17 19 20 21 21 22 22 23
8 8 8 8 8 8 7 7 6 6 5 4 4 4 5 5 6 7 7 8 8 8 9 9 10 11 12 14 15 16 17 18 19 20 21 22 22 23
Wind_Direction
269 271 274 275 277 278 279 280 281 282 282 282 283 283 284 285 285 286 287 287 287 288 288 288 288 288 287 287 287 287 286 286 285 284 283 282 281 280
272 274 276 277 277 278 280 281 282 282 283 283 283 285 286 286 286 287 288 288 288 289 289 289 289 289 289 289 289 288 288 287 287 286 285 283 283 282
274 276 277 278 278 280 280 281 282 282 283 284 284 286 286 287 287 288 289 290 290 290 291 291 291 291 292 291 291 290 289 289 288 288 287 286 286 285
276 277 278 279 280 281 281 282 283 284 285 286 286 287 288 288 289 290 290 290 291 291 292 293 294 294 294 294 294 293 293 291 291 291 290 289 288 286
277 279 279 280 281 282 283 284 285 285 286 287 287 288 289 290 291 291 291 292 293 294 295 296 297 298 297 297 296 297 297 297 296 294 291 290 289 288
278 279 281 282 283 283 284 285 286 286 287 287 287 289 289 290 292 293 294 295 295 296 297 299 300 300 301 301 301 302 302 302 302 300 297 295 294 293
279 280 281 282 283 284 285 285 286 286 287 288 289 289 290 291 292 294 295 296 297 299 300 302 302 303 304 304 305 306 307 307 307 306 304 303 302 300
279 281 282 283 285 285 286 287 287 287 287 288 289 290 291 292 293 295 296 297 300 302 304 304 304 305 307 309 311 312 312 311 311 311 310 309 309 307
281 282 284 284 285 287 288 288 289 289 289 289 289 291 292 293 295 297 298 300 303 305 306 307 307 309 310 313 315 316 316 316 316 316 316 315 315 315
282 283 284 285 287 289 290 290 290 290 291 291 291 293 294 295 297 299 301 303 304 306 308 309 310 313 315 317 318 320 321 322 322 322 321 321 321 321
281 283 285 287 289 290 290 291 292 293 293 293 294 296 297 299 300 301 302 303 305 307 309 311 314 317 319 321 322 325 326 327 328 328 328 328 328 329
283 285 286 288 289 290 290 292 292 293 295 296 297 299 300 301 302 302 303 305 307 309 312 315 318 321 323 325 328 330 332 333 335 336 336 336 336 336
285 286 287 289 290 290 292 293 293 294 296 297 299 301 301 302 302 302 304 305 309 312 316 320 322 325 329 332 334 336 339 340 342 343 344 346 346 345
286 287 288 290 291 292 294 295 295 296 297 298 300 302 302 303 303 304 306 308 311 316 320 324 328 332 336 339 341 344 347 348 349 350 352 354 356 356
287 289 290 291 292 294 295 297 298 298 299 299 301 303 304 304 306 309 311 312 314 318 323 329 335 338 342 345 348 351 353 355 357 358 359 1 2 3
290 291 293 294 295 296 297 299 300 301 302 304 304 305 306 308 310 312 314 317 321 326 332 338 343 346 349 353 356 358 360 3 5 7 8 8 9 10
297 300 301 300 300 299 300 301 303 304 307 308 308 309 312 313 315 316 318 324 329 335 342 347 351 355 0 3 5 7 9 11 11 12 13 14 15 15
305 307 306 304 303 304 304 304 306 308 311 313 314 316 319 322 326 329 330 333 337 343 350 357 2 7 11 14 15 17 17 17 16 17 18 19 20 20
312 311 311 311 312 312 312 312 312 314 317 318 321 325 329 331 336 341 343 347 354 3 8 13 17 19 21 21 22 23 23 22 22 22 22 23 23 24
322 323 323 323 322 322 322 322 321 323 325 326 328 334 341 346 352 357 5 14 24 30 33 33 32 30 29 27 26 28 28 28 28 27 27 27 27 27
339 338 337 336 336 335 335 334 333 332 333 335 339 346 353 2 14 25 37 50 55 54 52 48 43 40 36 34 33 32 33 32 31 30 29 28 27 27
356 354 353 352 352 350 350 349 349 350 352 354 360 9 22 37 47 57 65 70 69 66 62 56 51 46 41 39 37 35 33 32 30 29 28 27 25 24
10 8 7 7 7 5 6 8 10 14 20 29 38 48 60 67 72 77 78 77 74 72 67 60 55 51 46 42 39 35 33 31 29 28 26 25 24 23
Height
5789 5788 5787 5786 5784 5782 5781 5778 5776 5773 5770 5768 5765 5762 5758 5755 5752 5748 5745 5742 5738 5735 5731 5728 5725 5721 5718 5714 5710 5707 5703 5699 5696 5692 5689 5685 5682 5679
5779 5778 5777 5776 5774 5772 5770 5767 5765 5762 5759 5756 5753 5750 5747 5743 5740 5736 5733 5730 5727 5723 5720 5716 5713 5709 5705 5701 5697 5693 5689 5685 5681 5678 5674 5670 5667 5663
5770 5769 5768 5766 5764 5762 5759 5756 5754 5751 5748 5745 5742 5738 5735 5732 5729 5726 5722 5719 5716 5713 5709 5705 5701 5697 5693 5689 5684 5680 5676 5672 5668 5664 5660 5656 5652 5649
5761 5759 5757 5755 5753 5751 5748 5746 5743 5740 5737 5734 5730 5728 5725 5722 5719 5716 5712 5709 5706 5702 5699 5695 5691 5686 5682 5678 5673 5669 5665 5660 5656 5652 5648 5644 5639 5635
5751 5749 5747 5745 5743 5740 5738 5735 5732 5729 5726 5723 5720 5718 5715 5712 5709 5706 5703 5700 5697 5693 5690 5686 5681 5677 5672 5668 5664 5659 5654 5650 5645 5641 5636 5631 5627 5623
5741 5739 5737 5735 5733 5731 5728 5725 5723 5720 5717 5714 5711 5709 5706 5703 5701 5698 5695 5692 5689 5685 5681 5677 5673 5668 5664 5659 5655 5650 5646 5641 5635 5630 5625 5620 5616 5611
5732 5730 5728 5726 5724 5721 5719 5716 5713 5711 5708 5705 5703 5701 5698 5695 5693 5690 5687 5684 5681 5677 5673 5669 5665 5661 5656 5652 5648 5643 5638 5633 5627 5622 5617 5612 5606 5601
5723 5722 5719 5717 5715 5713 5710 5708 5705 5703 5700 5698 5695 5693 5690 5688 5685 5683 5680 5677 5674 5670 5666 5662 5658 5654 5650 5646 5641 5636 5631 5626 5621 5615 5610 5604 5598 5592
5715 5713 5711 5709 5707 5705 5702 5699 5697 5695 5693 5691 5688 5686 5683 5681 5679 5676 5673 5670 5667 5664 5660 5656 5653 5649 5644 5640 5635 5630 5625 5620 5615 5609 5603 5597 5591 5586
5707 5706 5703 5701 5699 5697 5695 5692 5690 5688 5686 5684 5682 5679 5677 5675 5672 5670 5667 5665 5662 5659 5655 5652 5648 5644 5640 5635 5631 5626 5620 5615 5610 5604 5598 5592 5586 5580
5700 5698 5696 5694 5692 5690 5688 5686 5684 5682 5680 5678 5676 5674 5672 5669 5667 5665 5662 5660 5657 5654 5651 5647 5644 5639 5635 5631 5626 5621 5616 5611 5605 5599 5593 5588 5582 5575
5693 5691 5690 5688 5686 5684 5682 5680 5679 5677 5675 5673 5671 5669 5667 5664 5662 5660 5657 5655 5652 5650 5647 5643 5640 5636 5632 5628 5623 5618 5613 5607 5602 5596 5590 5584 5578 5572
5687 5685 5684 5682 5681 5679 5677 5675 5674 5672 5670 5668 5666 5664 5662 5660 5658 5656 5653 5651 5649 5646 5643 5640 5637 5633 5630 5625 5621 5616 5610 5605 5599 5594 5588 5582 5576 5570
5682 5680 5679 5677 5676 5674 5673 5671 5669 5668 5666 5664 5662 5660 5658 5656 5654 5652 5650 5647 5645 5643 5640 5638 5635 5631 5627 5623 5619 5614 5609 5603 5598 5592 5586 5581 5575 5569
5677 5676 5675 5673 5672 5670 5668 5667 5665 5663 5662 5660 5658 5656 5654 5652 5650 5648 5646 5644 5643 5640 5638 5636 5633 5630 5626 5622 5618 5613 5608 5603 5598 5592 5586 5581 5575 5569
5674 5672 5671 5669 5668 5666 5665 5663 5661 5660 5658 5656 5654 5652 5650 5648 5647 5645 5643 5642 5640 5638 5636 5634 5631 5629 5625 5621 5617 5613 5608 5603 5598 5592 5587 5582 5576 5570
5670 5669 5668 5666 5665 5663 5661 5660 5658 5656 5654 5652 5651 5649 5647 5645 5644 5642 5641 5639 5638 5636 5635 5633 5630 5628 5625 5621 5617 5613 5608 5604 5599 5594 5589 5583 5578 5572
5668 5666 5665 5663 5662 5660 5658 5656 5655 5653 5651 5649 5648 5646 5645 5643 5642 5640 5639 5638 5637 5635 5634 5632 5630 5628 5625 5622 5618 5614 5609 5605 5600 5596 5590 5585 5580 5575
5666 5664 5663 5661 5659 5657 5655 5653 5652 5650 5648 5647 5646 5644 5643 5642 5640 5639 5638 5637 5636 5635 5633 5632 5630 5628 5625 5623 5619 5615 5611 5607 5602 5598 5593 5588 5583 5578
5664 5663 5661 5659 5657 5655 5653 5651 5649 5648 5647 5645 5644 5643 5642 5641 5640 5639 5638 5637 5636 5635 5634 5633 5631 5629 5626 5624 5621 5617 5613 5609 5605 5600 5596 5591 5586 5581
5663 5661 5659 5657 5655 5653 5651 5649 5648 5646 5645 5644 5643 5642 5641 5640 5639 5639 5638 5637 5636 5636 5635 5634 5632 5630 5628 5625 5622 5619 5615 5611 5607 5603 5598 5594 5589 5584
5662 5661 5659 5656 5654 5652 5651 5649 5647 5646 5644 5643 5642 5642 5641 5640 5640 5639 5639 5638 5638 5637 5636 5635 5633 5632 5629 5627 5624 5621 5617 5614 5610 5605 5601 5596 5592 5587
5663 5661 5658 5656 5654 5652 5650 5648 5647 5645 5644 5643 5643 5642 5641 5641 5641 5640 5640 5640 5639 5638 5638 5637 5635 5633 5631 5629 5626 5623 5620 5616 5612 5608 5604 5599 5595 5590